Regional Weather Roundup
Issued by NWS

Home | Current Version | Previous Version | Graphics & Text | Print | Product List | Glossary On
Versions: 1 2 3 4 5 6 7 8 9 10 11 12 13 14 15 16 17 18 19 20 21 22 23 24 25 26 27 28 29 30 31 32 33 34 35 36 37 38 39 40 41 42 43 44 45 46 47 48 49 50
000
ASUS43 KDMX 211101
RWRIA

WEATHER ROUNDUP FOR IOWA
NATIONAL WEATHER SERVICE DES MOINES IA
600 AM CDT MON MAY 21 2018

NOTE: "FAIR" INDICATES FEW OR NO CLOUDS BELOW 12,000 FEET WITH NO
SIGNIFICANT WEATHER AND/OR OBSTRUCTIONS TO VISIBILITY.

* - THESE STATIONS ARE NOT NWS STATIONS...THUS NOT UNDER NWS
QUALITY CONTROL.  THEY ALSO DO NOT REPORT WEATHER SUCH
AS PRECIPITATION OR FOG.

IAZ001>003-012>014-020>022-031>034-043>046-211200-
   NORTHWEST IOWA

CITY           SKY/WX    TMP DP  RH WIND       PRES   REMARKS
CARROLL *      FOG      N/A N/A N/A E6        30.03S VSB 1
DENISON *      CLOUDY    57  57 100 E9        30.04S FOG
LE MARS *      CLOUDY    57  57 100 SE5       30.04S FOG
ORANGE CITY *  RAIN      57  55  94 E6        30.04S
SHELDON *      CLOUDY    55  55 100 E7        30.03S FOG
SIOUX CITY     CLOUDY    54  53  97 NW8       30.04S FOG
SPENCER        CLOUDY    56  54  93 SE9       30.05S FOG
STORM LAKE *   FOG       55  54  94 SE10      30.04S VSB 1/4
$$

IAZ055>058-069>071-079>083-090>094-211200-
   SOUTHWEST IOWA

CITY           SKY/WX    TMP DP  RH WIND       PRES   REMARKS
ATLANTIC *     CLOUDY    59  59 100 E5        30.02S FOG
AUDUBON *      FOG       57  55  94 E7        30.04S VSB 1/2
CLARINDA *     CLOUDY    61  61 100 CALM      30.04R FOG
COUNCIL BLFS * FOG       57  57 100 CALM      30.03R VSB<1/4
CRESTON *      CLOUDY    59  57  94 NE7       30.03S FOG
HARLAN  *      CLOUDY    59  59 100 E5        30.06R FOG
LAMONI         CLOUDY    60  58  92 CALM      30.00R
RED OAK *      CLOUDY    61  59  94 E5        30.02R FOG
SHENANDOAH *   CLOUDY    59  57  94 W6        30.03S FOG
$$

IAZ047>049-059>061-072>074-084-211200-
   CENTRAL IOWA

CITY           SKY/WX    TMP DP  RH WIND       PRES   REMARKS
AMES           LGT RAIN  57  56  96 E7        30.03F FOG
ANKENY *       LGT RAIN  57  57 100 CALM      30.03S
BOONE *        CLOUDY    57  57 100 E8        30.03S FOG
CHARITON *     DRIZZLE   59  59 100 NE5       30.00R
DES MOINES     LGT RAIN  59  57  93 NE5       30.01S FOG
GRINNELL*      LGT RAIN  56  55  96 E13       30.04S
KNOXVILLE *    DRIZZLE   59  59 100 E9        29.99S
MARSHALLTOWN   LGT RAIN  55  55 100 E16       30.03F
NEWTON *       LGT RAIN  57  57 100 E9        30.02F
PELLA *        RAIN      57  56  98 E9G16     30.01F
PERRY *        CLOUDY    58  57  98 E8        30.03F FOG
$$

IAZ004>006-015-016-023>025-035-036-211200-
   NORTH CENTRAL IOWA

CITY           SKY/WX    TMP DP  RH WIND       PRES   REMARKS
ALGONA *       CLOUDY    55  54  94 E8        30.06F
CLARION *      CLOUDY    55  54  94 E12       30.05F FOG
ESTHERVILLE    CLOUDY    54  53  97 E9        30.05F
FORT DODGE *   CLOUDY    56  55  97 E5        30.05F
MASON CITY     LGT RAIN  55  54  96 E12       30.08F FOG
FOREST CITY *  RAIN      55  55 100 E8        30.06F
IOWA FALLS *   CLOUDY    56  55  97 E8        30.07R
$$

IAZ007>011-017>019-026>030-037>042-050>054-066-211200-
   NORTHEAST IOWA

CITY           SKY/WX    TMP DP  RH WIND       PRES   REMARKS
CEDAR RAPIDS   CLOUDY    54  53  97 E8        30.05S
CHARLES CITY * CLOUDY    54  52  94 E9        30.08F
CLINTON *        N/A     53  52  96 E13       30.09F
DECORAH *      CLOUDY    55  45  67 E8        30.09S
DUBUQUE        CLOUDY    51  49  92 NE6       30.09S FOG
MONTICELLO *   CLOUDY    54  54 100 VRB6      30.07F
OELWEIN *      CLOUDY    52  52 100 E9        30.09R
WATERLOO       LGT RAIN  53  53 100 E9        30.06S
$$

IAZ064-065-067-068-078-211200-
   EAST CENTRAL IOWA

CITY           SKY/WX    TMP DP  RH WIND       PRES   REMARKS
DAVENPORT      CLOUDY    53  51  93 E13       30.09S
IOWA CITY      LGT RAIN  56  54  93 E7        30.06F FOG
MUSCATINE *    CLOUDY    57  55  94 E8        30.06S FOG
QUAD CITIES    CLOUDY    55  52  89 E14       30.06F
$$

IAZ062-063-075>077-085>089-095>099-211200-
   SOUTHEAST IOWA

CITY           SKY/WX    TMP DP  RH WIND       PRES   REMARKS
BURLINGTON     CLOUDY    59  56  89 E7        30.03F
FAIRFIELD *    CLOUDY    57  57 100 E10       30.01F FOG
FORT MADISON * CLOUDY    61  59  94 E7        30.03F
KEOKUK *       CLOUDY    61  61 100 E6        30.01S FOG
OSKALOOSA *    CLOUDY    56  56  98 E12       30.02S FOG
CENTERVILLE *    N/A     59  59 100 CALM      30.00S
OTTUMWA        CLOUDY    59  57  93 E10       30.00F FOG
WASHINGTON *   CLOUDY    57  57 100 E9        30.05S FOG
$$

ABBREVIATIONS USED IN REMARKS
   TC - TEMPERATURES IN CELSIUS
  WCI - WIND CHILL INDEX
   HX - HEAT INDEX
  VSB - VISIBILITY
$$




USA.gov is the U.S. government's official web portal to all federal, state and local government web resources and services.